DW9433 Weather Reports


Display with metric or nautical units.
time (UTC)temp
F
wind
direction
speed
MPH
gust
MPH
rain 1hr
in
rain 24hr
in
rain mn
in
humidity
%
barometer
mb
20260503181513 72 209 0.0 3.0 0.00 0.00 0.00 39 1019.6
20260503180017 72 196 0.0 3.0 0.00 0.00 0.00 39 1020.0
20260503174510 71 174 1.0 8.0 0.00 0.00 0.00 41 1020.1
20260503173010 71 172 1.0 7.0 0.00 0.00 0.00 39 1020.5
20260503171508 71 137 0.0 3.0 0.00 0.00 0.00 42 1020.7
20260503081611 45 28 0.0 0.0 0.00 0.00 0.00 89 1020.4
20260503071536 47 28 0.0 0.0 0.00 0.00 0.00 86 1020.3
20260503054521 51 28 0.0 0.0 0.00 0.00 0.00 77 1020.1
20260503053019 51 28 0.0 0.0 0.00 0.00 0.00 76 1020.0
20260503051516 52 28 0.0 0.0 0.00 0.00 0.00 74 1019.9
20260503050027 52 28 0.0 0.0 0.00 0.00 0.00 73 1019.7
20260503044512 53 28 0.0 0.0 0.00 0.00 0.00 72 1019.7
20260503043014 54 28 0.0 0.0 0.00 0.00 0.00 70 1019.5
20260503041510 55 28 0.0 0.0 0.00 0.00 0.00 68 1019.5
20260503040009 55 28 0.0 0.0 0.00 0.00 0.00 66 1019.5
20260503034508 56 18 0.0 0.0 0.00 0.00 0.00 65 1019.4
20260503033008 56 25 0.0 2.0 0.00 0.00 0.00 64 1019.3
20260503031506 56 30 0.0 0.0 0.00 0.00 0.00 63 1019.2
20260503030006 55 28 0.0 0.0 0.00 0.00 0.00 64 1019.0
20260503024507 54 48 0.0 0.0 0.00 0.00 0.00 69 1018.9
20260503023001 55 53 0.0 0.0 0.00 0.00 0.00 68 1018.6
20260503021502 56 53 0.0 0.0 0.00 0.00 0.00 65 1018.4
20260503020001 57 53 0.0 0.0 0.00 0.00 0.00 62 1018.2
20260503014605 58 53 0.0 0.0 0.00 0.00 0.00 58 1018.0
20260503014500 58 53 0.0 0.0 0.00 0.00 0.00 58 1018.0
20260503013100 59 53 0.0 0.0 0.00 0.00 0.00 56 1017.7
20260503011605 61 53 0.0 0.0 0.00 0.00 0.00 51 1017.5
20260503004559 63 53 0.0 0.0 0.00 0.00 0.00 45 1017.2
20260503003058 64 53 0.0 0.0 0.00 0.00 0.00 43 1017.1
20260503001603 65 53 0.0 0.0 0.00 0.00 0.00 42 1016.9
20260503000107 66 53 0.0 0.0 0.00 0.00 0.00 42 1016.7
20260502234614 67 317 0.0 0.0 0.00 0.00 0.00 42 1016.5
20260502233109 67 5 0.0 0.0 0.00 0.00 0.00 40 1016.4
20260502231608 68 346 0.0 0.0 0.00 0.00 0.00 39 1016.4
20260502230056 69 250 0.0 7.0 0.00 0.00 0.00 41 1016.4
20260502224555 69 151 0.0 0.0 0.00 0.00 0.00 39 1016.4
20260502223055 69 38 0.0 0.0 0.00 0.00 0.00 39 1016.2
20260502221602 69 252 0.0 0.0 0.00 0.00 0.00 39 1016.3
20260502220056 69 309 0.0 1.0 0.00 0.00 0.00 40 1016.2
20260502214604 69 172 0.0 2.0 0.00 0.00 0.00 40 1016.3
20260502213054 69 263 0.0 0.0 0.00 0.00 0.00 41 1016.3
20260502211550 70 256 0.0 4.0 0.00 0.00 0.00 40 1016.2
20260502210050 71 121 0.0 1.0 0.00 0.00 0.00 36 1016.3
20260502204552 71 213 0.0 3.0 0.00 0.00 0.00 38 1016.3
20260502203056 69 217 0.0 3.0 0.00 0.00 0.00 40 1016.4
20260502201551 69 296 0.0 0.0 0.00 0.00 0.00 41 1016.7
20260502200048 71 287 0.0 2.0 0.00 0.00 0.00 38 1016.8
20260502194547 72 258 0.0 1.0 0.00 0.00 0.00 40 1016.7
20260502193046 70 233 0.0 4.0 0.00 0.00 0.00 39 1016.9
20260502191546 70 267 0.0 2.0 0.00 0.00 0.00 44 1016.9
20260502190049 71 269 0.0 3.0 0.00 0.00 0.00 38 1017.0
20260502184543 70 164 0.0 2.0 0.00 0.00 0.00 46 1017.1
20260502183043 70 191 0.0 1.0 0.00 0.00 0.00 41 1017.3